[[{"header":{"parameterUnit":"m.s-1","parameterCategory":1,"la1":30.2991,"la2":30.254,"lo1":-89.0895,"lo2":-89.0444,"dy":0.0017,"dx":0.0017,"nx":28,"ny":28,"refTime":"2024-10-15T09:00:00:Z","depth":0,"parameterNumber":2,"parameterNumberName":"U-component_of_WINDS"},"data":[0,0,0,0,0,0,0,0,0,0,0,0,0,0,0,0,0,0,0,0,0,0,0,0,0,0,0,0,0,0,0,0,0,0,0,0,0,0,0,0,0,0,0,0,0,0,0,0,0,0,0,0,0,0,0,0,0,0,-4.6656,-4.6656,0,-4.6679,-4.668,-4.668,-4.6551,-4.6548,-4.6544,-4.654,-4.6565,-4.6569,-4.6573,0,0,0,0,0,0,0,0,0,0,0,0,0,-4.65,-4.6504,-4.6656,-4.6656,-4.6657,-4.6679,-4.668,-4.668,-4.6552,-4.6547,-4.6543,-4.6539,-4.6564,-4.6568,-4.6573,0,0,0,0,0,0,0,0,0,0,0,0,0,-4.655,-4.6505,-4.6656,-4.6595,-4.659,-4.6679,-4.668,-4.668,-4.6553,-4.6547,-4.6542,-4.6537,-4.6562,-4.6568,-4.6574,-4.6722,0,0,-4.6593,-4.6595,0,0,0,0,0,0,0,0,-4.6547,-4.6556,-4.6604,-4.66,-4.6594,-4.6607,-4.6633,-4.6694,-4.6554,-4.6567,-4.654,-4.6534,-4.6583,-4.6587,-4.6604,-4.6723,-4.6724,-4.6593,-4.6597,-4.66,-4.6601,0,0,0,0,0,0,0,-4.6544,-4.6554,-4.6665,-4.6605,-4.6599,-4.6567,-4.6568,-4.6644,-4.6606,-4.6566,-4.6556,-4.6561,-4.6579,-4.6598,-4.6603,-4.6725,-4.6593,-4.6598,-4.6602,-4.6605,-4.6967,-4.6972,0,0,0,0,0,0,-4.6549,-4.6552,-4.6664,-4.6666,-4.6557,-4.6574,-4.6575,-4.6608,-4.6605,-4.6599,-4.6565,-4.6555,-4.6591,-4.6596,-4.6604,-4.6778,-4.6599,-4.6605,-4.6609,-4.6961,-4.6968,-4.6975,0,0,0,0,0,0,-4.6546,-4.656,-4.6663,-4.6607,-4.6617,-4.6583,-4.6621,-4.6612,-4.663,-4.6605,-4.6597,-4.6592,-4.6586,-4.6595,-4.6694,-4.6777,-4.6608,-4.6614,-4.6954,-4.6963,-4.6971,-4.7127,0,0,0,0,0,0,-4.6542,-4.656,-4.6616,-4.6609,-4.6621,-4.6754,-4.6626,-4.6616,-4.6641,-4.6627,-4.6627,-4.6622,-4.6583,-4.6685,-4.67,-4.6782,-4.6618,-4.6946,-4.6958,-4.6969,-4.7114,-4.714,-4.7162,0,0,0,0,0,-4.6537,-4.6659,-4.662,-4.6634,-4.6691,-4.6759,-4.6766,-4.6718,-4.6648,-4.6705,-4.6688,-4.6622,-4.6765,-4.6696,-4.6712,-4.6797,-4.6941,-4.6955,-4.6968,-4.7103,-4.7135,-4.7161,0,0,0,0,0,0,-4.6677,-4.6657,-4.6613,-4.6736,-4.675,-4.6737,-4.6807,-4.6753,-4.6787,-4.6772,-4.6711,-4.6712,-4.6821,-4.6818,-4.6743,-4.694,-4.6841,-4.6858,-4.6939,-4.6968,-4.6992,-4.6991,-4.6623,0,0,0,0,0,-4.6723,-4.678,-4.6759,-4.687,-4.6879,-4.6842,-4.687,-4.6831,-4.6843,-4.6849,-4.6839,-4.6853,-4.6901,-4.6934,-4.6977,-4.7112,-4.711,-4.7178,-4.7202,-4.7222,-4.7238,-4.7309,-4.7339,-4.7019,-4.7018,-4.7018,0,0,-4.6817,-4.6813,-4.6853,-4.6898,-4.6904,-4.6965,-4.6848,-4.6917,-4.6961,-4.6859,-4.6952,-4.6945,-4.6957,-4.7075,-4.7126,-4.7076,-4.7326,-4.7239,-4.7255,-4.726,-4.7326,-4.7357,-4.7384,-4.7028,-4.7026,-4.7024,0,0,-4.702,-4.7023,-4.7115,-4.7124,-4.7134,-4.7109,-4.7131,-4.7126,-4.7118,-4.7209,-4.7134,-4.7185,-4.7269,-4.7281,-4.7298,-4.7504,-4.7445,-4.7519,-4.7645,-4.7716,-4.7741,-4.7763,-4.7838,-4.7865,-4.7535,-4.7535,-4.7536,0,-4.7137,-4.7225,-4.717,-4.7244,-4.7266,-4.7176,-4.7269,-4.728,-4.7305,-4.7322,-4.7265,-4.7368,-4.7369,-4.7488,-4.7539,-4.7555,-4.7579,-4.752,-4.7742,-4.7763,-4.7783,-4.7853,-4.7882,-4.7544,-4.7543,-4.7542,-4.7542,0,-4.7368,-4.743,-4.7503,-4.7529,-4.7559,-4.7643,-4.76,-4.7637,-4.7596,-4.7576,-4.7671,-4.7669,-4.771,-4.7735,-4.7695,-4.7849,-4.7817,-4.7752,-4.7651,-4.7824,-4.7889,-4.7915,-4.7557,-4.7554,-4.7551,-4.7549,0,0,-4.7662,-4.7655,-4.7684,-4.7694,-4.7698,-4.7746,-4.7824,-4.7864,-4.7897,-4.7916,-4.7982,-4.8054,-4.7993,-4.8012,-4.7973,-4.8035,-4.8199,-4.7961,-4.7961,-4.8007,-4.8369,-4.8419,-4.8451,-4.8159,-4.8164,-4.8168,-4.8368,0,-4.7862,-4.7997,-4.795,-4.8088,-4.8145,-4.8059,-4.8127,-4.8138,-4.8121,-4.8167,-4.8148,-4.8201,-4.8116,-4.8127,-4.8184,-4.8167,-4.8271,-4.8152,-4.822,-4.8223,-4.8222,-4.8485,-4.8539,-4.8728,-4.8393,-4.8397,-4.84,0,-4.8114,-4.8143,-4.8287,-4.8281,-4.8303,-4.8366,-4.8398,-4.8443,-4.8452,-4.8436,-4.8457,-4.8404,-4.8481,-4.8379,-4.8484,-4.8404,-4.8428,-4.8424,-4.843,-4.8436,-4.8324,-4.85,-4.8787,-4.8816,-4.844,-4.8437,-4.8434,0,-4.8316,-4.8391,-4.8487,-4.8498,-4.8493,-4.854,-4.854,-4.8544,-4.857,-4.8598,-4.8615,-4.8651,-4.8672,-4.8701,-4.8659,-4.8589,-4.8771,-4.8665,-4.876,-4.8762,-4.8804,-4.8802,-4.9101,-4.8818,-4.8817,-4.8817,-4.8816,0,-4.8545,-4.8637,-4.8577,-4.8637,-4.8737,-4.868,-4.8781,-4.8771,-4.8775,-4.8831,-4.8758,-4.8812,-4.8752,-4.8801,-4.8768,-4.8861,-4.887,-4.8859,-4.885,-4.8867,-4.8869,-4.8884,-4.887,-4.8824,-4.8822,-4.8821,-4.882,0,-4.8789,-4.8753,-4.8851,-4.8838,-4.8837,-4.8912,-4.89,-4.8955,-4.8932,-4.9003,-4.9017,-4.8982,-4.9034,-4.8995,-4.9047,-4.9025,-4.9148,-4.9119,-4.9145,-4.9138,-4.9235,-4.9227,-4.9556,-4.9596,-4.9285,-4.9288,-4.9291,0,-4.8938,-4.9007,-4.9001,-4.9033,-4.9038,-4.909,-4.9117,-4.9063,-4.9094,-4.9109,-4.9162,-4.9208,-4.9243,-4.9331,-4.931,-4.935,-4.9322,-4.9434,-4.9328,-4.9343,-4.9325,-4.9323,-4.9329,-4.9457,-4.9461,-4.9464,-4.9466,0,-4.9208,-4.9187,-4.9228,-4.9263,-4.9297,-4.9322,-4.9341,-4.9371,-4.9317,-4.9355,-4.9408,-4.9435,-4.9487,-4.9535,-4.9566,-4.9566,-4.9508,-4.9499,-4.9523,-4.9543,-4.9555,-4.9551,-4.9206,-4.9493,-4.949,-4.9488,-4.9486,-4.9485,-4.941,-4.9467,-4.9472,-4.952,-4.9528,-4.9548,-4.9598,-4.9581,-4.9625,-4.9664,-4.9629,-4.9693,-4.9699,-4.9736,-4.9743,-4.9792,-4.9745,-4.978,-4.9789,-4.9799,-4.9814,-4.9546,-4.9797,-4.9796,-4.9795,-4.9795,-4.9794,0,-4.9677,-4.9676,-4.972,-4.9749,-4.9787,-4.9728,-4.9745,-4.9781,-4.9838,-4.9849,-4.9884,-4.9945,-4.999,-4.9972,-5.0012,-5.0055,-5.0029,-5.0067,-5.0064,-5.0065,-4.9852,-4.9828,-5.0087,-5.0087,-5.0087,-5.0087,-5.0087,-5.0087,-4.9821,-4.9914,-4.9893,-4.999,-4.9987,-5.0049,-5.0064,-5.0082,-5.009,-5.0161,-5.0198,-5.0186,-5.0185,-5.0224,-5.0263,-5.0256,-5.0275,-5.0323,-5.0307,-5.0109,-5.008,-5.0053,-5.003,-5.0327,-5.0328,-5.0516,-5.0518,-5.0519]},{"header":{"parameterUnit":"m.s-1","parameterCategory":1,"la1":30.2991,"la2":30.254,"lo1":-89.0895,"lo2":-89.0444,"dy":0.0017,"dx":0.0017,"nx":28,"ny":28,"refTime":"2024-10-15T09:00:00:Z","depth":0,"parameterNumber":3,"parameterNumberName":"V-component_of_WINDS"},"data":[0,0,0,0,0,0,0,0,0,0,0,0,0,0,0,0,0,0,0,0,0,0,0,0,0,0,0,0,0,0,0,0,0,0,0,0,0,0,0,0,0,0,0,0,0,0,0,0,0,0,0,0,0,0,0,0,0,0,-9.2942,-9.2943,0,-9.3027,-9.3028,-9.3029,-9.2899,-9.2894,-9.289,-9.2885,-9.2966,-9.2972,-9.2979,0,0,0,0,0,0,0,0,0,0,0,0,0,-9.2662,-9.2667,-9.2942,-9.2943,-9.2944,-9.3027,-9.3028,-9.3029,-9.2899,-9.2894,-9.2888,-9.2883,-9.2964,-9.2972,-9.2979,0,0,0,0,0,0,0,0,0,0,0,0,0,-9.2768,-9.2669,-9.2942,-9.289,-9.2886,-9.3026,-9.3028,-9.3029,-9.2901,-9.2894,-9.2887,-9.2881,-9.2962,-9.2971,-9.298,-9.3174,0,0,-9.3009,-9.3013,0,0,0,0,0,0,0,0,-9.2763,-9.2779,-9.2896,-9.2894,-9.289,-9.2945,-9.2958,-9.3077,-9.2902,-9.2895,-9.2885,-9.2877,-9.2964,-9.2973,-9.3004,-9.3178,-9.3181,-9.301,-9.3016,-9.302,-9.3023,0,0,0,0,0,0,0,-9.2755,-9.2774,-9.2975,-9.2898,-9.2894,-9.286,-9.2868,-9.298,-9.2966,-9.2895,-9.2886,-9.2898,-9.2961,-9.2995,-9.3005,-9.3182,-9.301,-9.3018,-9.3024,-9.3028,-9.3518,-9.3525,0,0,0,0,0,0,-9.2755,-9.2769,-9.2973,-9.2978,-9.2808,-9.287,-9.2879,-9.2934,-9.2965,-9.2963,-9.2904,-9.2892,-9.2982,-9.2994,-9.3007,-9.3235,-9.302,-9.3029,-9.3034,-9.351,-9.3519,-9.3527,0,0,0,0,0,0,-9.275,-9.2775,-9.2969,-9.2871,-9.2893,-9.2882,-9.2945,-9.2939,-9.2973,-9.2971,-9.2967,-9.2941,-9.2977,-9.2993,-9.3133,-9.3236,-9.3033,-9.3042,-9.3502,-9.3513,-9.3523,-9.3693,0,0,0,0,0,0,-9.2742,-9.2773,-9.2849,-9.2874,-9.2899,-9.3097,-9.2952,-9.2946,-9.299,-9.2976,-9.3005,-9.3004,-9.2973,-9.312,-9.3143,-9.3245,-9.3049,-9.3492,-9.3507,-9.352,-9.3678,-9.3709,-9.3734,0,0,0,0,0,-9.2733,-9.2892,-9.2853,-9.2878,-9.2993,-9.3103,-9.3117,-9.308,-9.2999,-9.3074,-9.3072,-9.3003,-9.3221,-9.3135,-9.316,-9.3267,-9.3486,-9.3503,-9.3519,-9.3666,-9.3703,-9.3734,0,0,0,0,0,0,-9.2877,-9.2894,-9.2851,-9.3024,-9.3064,-9.3081,-9.3174,-9.3121,-9.3182,-9.3165,-9.3115,-9.3123,-9.3273,-9.3283,-9.3188,-9.3455,-9.334,-9.3362,-9.3443,-9.3478,-9.3505,-9.3499,-9.3057,0,0,0,0,0,-9.2929,-9.3019,-9.3028,-9.318,-9.3202,-9.3185,-9.3231,-9.32,-9.3237,-9.3253,-9.3261,-9.3299,-9.3376,-9.3427,-9.3498,-9.3679,-9.3683,-9.3765,-9.3793,-9.3816,-9.3835,-9.3931,-9.3967,-9.3581,-9.3581,-9.3581,0,0,-9.3037,-9.3058,-9.3117,-9.3209,-9.3236,-9.3328,-9.32,-9.3303,-9.337,-9.3267,-9.3401,-9.3409,-9.3447,-9.3608,-9.368,-9.3622,-9.3943,-9.3837,-9.3855,-9.3862,-9.3951,-9.3988,-9.402,-9.3592,-9.359,-9.3589,0,0,-9.3281,-9.3307,-9.3435,-9.3465,-9.3508,-9.3495,-9.3527,-9.3553,-9.3554,-9.3688,-9.3613,-9.369,-9.3824,-9.3855,-9.3887,-9.4143,-9.4081,-9.4167,-9.4314,-9.4407,-9.4438,-9.4464,-9.4555,-9.4588,-9.4187,-9.4187,-9.4188,0,-9.341,-9.3548,-9.3507,-9.3617,-9.3658,-9.3572,-9.3701,-9.373,-9.3794,-9.3823,-9.3758,-9.3924,-9.3944,-9.411,-9.4173,-9.4203,-9.4235,-9.4163,-9.4437,-9.4463,-9.4487,-9.4573,-9.4607,-9.4197,-9.4196,-9.4195,-9.4194,0,-9.3703,-9.38,-9.3898,-9.3964,-9.4016,-9.4135,-9.411,-9.4168,-9.4132,-9.4126,-9.4261,-9.4282,-9.4355,-9.4392,-9.4357,-9.4554,-9.4517,-9.4446,-9.4328,-9.4535,-9.4614,-9.4647,-9.4212,-9.4208,-9.4205,-9.4203,0,0,-9.404,-9.4082,-9.4119,-9.4147,-9.4188,-9.4261,-9.4374,-9.4448,-9.4498,-9.4544,-9.4636,-9.4752,-9.4686,-9.4723,-9.469,-9.4773,-9.4973,-9.469,-9.469,-9.4742,-9.519,-9.5243,-9.5282,-9.4932,-9.4938,-9.4943,-9.5186,0,-9.4283,-9.4482,-9.4448,-9.464,-9.4728,-9.4647,-9.4745,-9.478,-9.4777,-9.4849,-9.4844,-9.4927,-9.4834,-9.4856,-9.4934,-9.4932,-9.5062,-9.4914,-9.5016,-9.502,-9.5009,-9.5323,-9.538,-9.5609,-9.5217,-9.5222,-9.5226,0,-9.4593,-9.4653,-9.4854,-9.4881,-9.4916,-9.5006,-9.507,-9.5141,-9.5177,-9.5169,-9.5212,-9.5164,-9.5274,-9.5156,-9.5306,-9.5207,-9.5246,-9.5251,-9.5259,-9.5267,-9.5135,-9.5339,-9.5681,-9.5715,-9.5275,-9.5271,-9.5267,0,-9.4818,-9.4949,-9.5086,-9.5112,-9.5147,-9.5212,-9.5229,-9.5259,-9.5305,-9.536,-9.5389,-9.5456,-9.5492,-9.5544,-9.5514,-9.5431,-9.567,-9.5549,-9.5665,-9.5666,-9.5718,-9.5715,-9.6071,-9.5745,-9.5745,-9.5744,-9.5743,0,-9.5093,-9.5219,-9.5187,-9.5272,-9.541,-9.5369,-9.5506,-9.5513,-9.554,-9.5623,-9.5556,-9.5634,-9.559,-9.5664,-9.5641,-9.5769,-9.5786,-9.5781,-9.5773,-9.5787,-9.5788,-9.5812,-9.5795,-9.5753,-9.5751,-9.5749,-9.5748,0,-9.5367,-9.5352,-9.5496,-9.5517,-9.5525,-9.5626,-9.5643,-9.572,-9.5712,-9.5818,-9.584,-9.5827,-9.5911,-9.5886,-9.5976,-9.5961,-9.6122,-9.6094,-9.6111,-9.6104,-9.622,-9.6209,-9.6603,-9.6652,-9.6296,-9.6299,-9.6302,0,-9.5544,-9.5639,-9.5671,-9.5723,-9.5745,-9.5829,-9.5876,-9.5839,-9.589,-9.5939,-9.6011,-9.6089,-9.615,-9.6287,-9.6284,-9.6353,-9.6325,-9.6459,-9.6335,-9.6346,-9.6326,-9.6321,-9.633,-9.6483,-9.6487,-9.6491,-9.6493,0,-9.5858,-9.5845,-9.5917,-9.5987,-9.6045,-9.6098,-9.6143,-9.6188,-9.6154,-9.6215,-9.6301,-9.6349,-9.6442,-9.652,-9.6582,-9.6596,-9.6539,-9.6533,-9.6563,-9.6577,-9.6583,-9.658,-9.6178,-9.6523,-9.652,-9.6518,-9.6517,-9.6515,-9.6088,-9.6168,-9.6204,-9.6286,-9.6317,-9.6361,-9.6435,-9.6437,-9.6509,-9.6583,-9.6556,-9.6655,-9.6687,-9.6765,-9.6788,-9.6863,-9.6811,-9.6855,-9.6866,-9.6877,-9.6892,-9.6572,-9.6874,-9.6873,-9.6872,-9.6871,-9.6871,0,-9.6397,-9.6416,-9.6492,-9.656,-9.6624,-9.6567,-9.6614,-9.6671,-9.6759,-9.6795,-9.6857,-9.6955,-9.703,-9.7034,-9.7104,-9.7163,-9.7138,-9.7182,-9.7177,-9.7181,-9.6934,-9.6901,-9.7201,-9.7201,-9.7201,-9.7201,-9.7201,-9.7201,-9.6566,-9.67,-9.6692,-9.6839,-9.6856,-9.6954,-9.6986,-9.7025,-9.7054,-9.7168,-9.7231,-9.7233,-9.7256,-9.7326,-9.7392,-9.7391,-9.7419,-9.7473,-9.7462,-9.7231,-9.7199,-9.7167,-9.7136,-9.748,-9.7481,-9.7703,-9.7705,-9.7706]}]]